Location: Ebersheim
(48.3033°N, 7.4991°E)
Time: 09:02:59
(UTC+00:00)

STARLINK-37 - Pass Details

Date: 27 February 2020
Orbit: 529 x 530 km, 53.0° (Epoch: 04 April)

Event Time Altitude Azimuth Distance (km) Brightness Sun altitude
Rises 17:40:22 0° 270° (W) 2,667 9.7 -5.8°
Reaches altitude 10° 17:42:39 10° 277° (W) 1,778 7.9 -6.2°
Maximum altitude 17:46:32 45° 351° (N) 732 4.3 -6.8°
Drops below altitude 10° 17:50:26 10° 65° (ENE) 1,782 5.6 -7.5°
Enters shadow 17:50:46 - 67° (ENE) 1,909 5.8 -7.5°
